Theta_e
306 306 306 306 306 306 303 296 287 305 307 289 290 285 292 296 297 300 299 300 300 297 298 297 294 295 300 304 305 301 304 301 296 298 304 306 304 301 301 295 293 296 295 295
305 305 306 306 306 305 300 290 291 305 305 284 285 291 292 294 295 296 298 299 301 304 298 295 298 298 303 304 304 302 304 298 292 295 300 303 300 303 303 302 301 295 293 295
305 305 305 306 306 305 301 290 285 295 295 296 291 288 289 290 296 296 298 300 301 299 298 301 297 298 301 305 304 304 306 300 296 292 296 300 297 299 301 300 297 296 296 297
305 305 305 305 305 305 300 292 290 294 284 287 292 292 291 289 290 296 298 296 299 298 294 295 296 300 300 301 301 304 304 297 298 299 300 300 299 298 299 297 299 295 297 298
304 305 305 305 305 305 296 288 291 294 293 293 291 291 290 290 292 293 293 295 297 299 295 297 293 297 299 298 302 302 305 298 299 296 299 299 296 298 299 299 299 299 299 298
303 303 304 304 305 304 294 297 300 296 292 292 289 291 291 291 294 296 297 297 297 297 299 304 304 304 302 302 300 302 302 301 297 293 298 298 294 297 298 300 301 300 297 302
303 303 303 304 304 304 301 299 299 294 288 291 291 291 292 292 293 293 297 299 297 301 307 307 304 302 301 300 299 302 301 300 300 294 293 287 297 303 303 300 301 303 303 304
303 302 302 303 304 304 300 301 300 295 291 292 291 292 292 293 295 294 297 299 303 305 305 298 293 291 292 294 298 299 301 300 296 293 292 295 297 299 300 299 299 304 304 305
302 302 302 302 304 304 301 301 306 300 294 292 295 293 294 291 291 293 297 303 308 307 300 296 288 286 288 287 293 302 299 302 299 295 290 287 297 302 306 306 297 306 306 306
303 302 302 303 304 304 301 300 309 302 293 296 297 292 293 297 295 293 296 298 301 305 296 291 290 289 293 288 290 292 295 296 294 295 293 296 303 304 307 295 297 307 307 307
303 302 302 302 304 304 301 298 308 302 296 297 300 300 296 297 297 292 296 297 300 300 293 292 293 293 293 292 293 294 294 293 293 296 292 290 305 302 298 305 311 310 310 309
303 302 302 303 303 304 302 296 307 306 299 298 305 304 306 305 302 297 298 299 299 301 297 299 298 297 301 295 290 297 295 299 297 298 299 308 307 307 310 311 310 311 310 310
302 302 303 303 304 303 302 300 304 303 297 297 299 299 304 307 307 309 297 303 305 303 308 301 300 295 299 295 296 295 299 302 300 300 303 306 309 310 310 311 311 311 311 311
302 302 302 303 303 302 302 300 304 301 297 291 293 303 302 305 305 305 305 306 308 309 306 305 301 299 301 299 298 298 300 302 301 300 303 305 308 310 312 312 311 310 311 310
302 302 303 303 302 302 302 304 304 304 297 291 292 300 302 305 305 302 304 303 305 303 304 301 298 301 300 302 302 299 302 300 300 299 305 306 307 310 314 312 311 311 310 309
301 302 303 301 300 301 298 290 300 303 302 294 287 299 298 301 303 302 302 304 305 304 301 302 302 304 301 299 296 301 302 304 306 304 309 309 310 307 308 311 312 312 311 310
302 302 301 300 300 301 295 293 299 301 302 296 289 291 299 300 300 300 301 303 303 303 304 302 302 303 303 302 296 299 303 305 306 309 308 306 308 308 305 306 306 305 308 308
301 299 299 300 300 301 299 304 301 305 297 298 287 288 292 301 296 294 301 299 303 301 302 305 302 304 304 297 300 302 304 306 307 308 309 308 306 304 304 304 303 302 302 302
300 300 299 298 297 294 298 301 301 304 299 288 286 286 284 291 296 300 301 303 295 303 299 299 302 300 295 301 302 303 305 304 306 307 305 303 303 302 301 301 301 299 298 298
299 298 293 289 297 300 300 295 292 293 296 296 288 292 286 290 286 294 296 298 292 288 295 302 297 297 303 305 305 307 308 307 305 302 301 300 301 300 300 300 300 299 298 297
299 295 292 300 301 296 292 286 286 288 286 293 293 292 290 293 286 287 293 290 291 287 294 295 294 294 300 302 303 304 306 306 304 303 303 303 303 300 299 297 297 296 294 290
297 299 299 298 293 291 287 286 287 286 287 292 291 291 293 291 289 285 289 289 288 288 297 294 290 290 293 297 299 301 302 301 299 301 299 299 297 295 290 288 286 284 283 283
303 296 291 291 289 283 283 280 285 286 291 293 293 289 293 292 288 285 287 287 287 291 288 285 285 288 290 291 293 294 296 296 294 292 291 290 287 287 286 284 284 284 282 281
293 289 284 286 283 287 289 290 290 291 291 292 292 289 287 287 285 286 285 286 286 285 285 282 284 285 285 286 286 285 285 284 283 283 283 282 281 281 282 282 282 282 281 281
287 289 283 284 286 286 286 288 289 288 291 293 293 290 289 286 286 286 286 284 282 283 282 283 283 284 283 282 282 281 280 280 280 281 280 280 280 280 281 281 282 281 279 279
288 285 284 284 286 284 283 283 285 286 287 291 293 287 285 285 287 284 282 283 279 280 283 283 282 281 280 280 280 280 280 280 280 281 281 281 280 280 280 280 280 279 279 279
286 282 284 283 284 281 280 280 280 284 286 285 287 285 283 288 283 280 282 278 280 281 281 282 283 281 281 282 282 282 282 282 282 282 282 281 281 281 280 277 278 278 277 278
Wind_Speed
31 30 30 29 27 25 22 6 6 12 17 12 4 14 32 28 27 29 21 19 16 18 13 12 14 14 19 12 22 26 23 10 11 16 17 20 18 19 18 10 13 8 11 12
33 32 31 31 30 31 12 6 4 12 19 14 15 31 37 29 29 29 23 16 16 8 10 8 16 18 10 7 22 23 20 14 13 16 13 7 12 17 14 15 13 13 10 8
34 34 33 34 34 33 13 7 8 8 13 17 28 33 31 28 33 33 26 21 19 15 11 10 3 9 1 9 14 12 16 16 19 15 16 15 19 19 19 18 12 13 16 18
33 35 36 36 36 36 15 9 12 16 15 22 26 23 24 32 32 31 30 27 24 18 11 12 11 4 4 3 1 5 15 22 19 21 18 14 17 18 20 20 19 19 16 20
29 34 36 38 38 39 12 9 12 17 14 25 29 26 26 29 31 31 34 24 25 18 18 12 12 8 6 3 5 11 17 16 22 19 18 18 17 15 16 17 17 18 19 20
31 30 33 38 41 36 7 11 17 12 16 22 20 25 28 32 28 29 29 28 22 24 19 9 12 8 2 1 10 10 12 15 16 16 18 19 16 17 17 17 17 14 17 16
33 33 30 39 41 42 7 9 11 13 13 21 22 26 28 30 35 23 26 24 29 21 16 6 2 2 6 3 14 10 7 13 11 7 2 14 9 14 19 20 19 17 17 17
34 34 32 32 42 46 12 9 15 14 12 17 27 26 26 26 22 24 22 28 19 17 7 8 6 2 5 11 21 18 12 9 7 6 12 14 18 8 12 16 16 17 18 16
34 35 34 33 40 46 18 10 13 12 14 21 22 20 23 19 20 23 25 19 6 14 9 8 15 10 10 12 5 10 12 9 9 5 12 18 13 11 10 14 15 17 16 14
34 35 34 32 36 46 21 9 19 13 12 13 14 7 17 20 18 18 20 20 16 19 10 9 11 12 13 16 18 6 4 4 12 11 8 7 9 8 8 12 13 7 5 6
34 35 34 31 42 45 23 10 17 14 10 4 18 8 15 16 17 16 19 15 14 10 11 9 9 9 12 14 16 19 11 8 6 8 7 10 8 7 11 13 15 5 7 8
34 35 34 31 44 43 26 10 13 10 8 2 5 3 8 11 23 15 14 22 16 10 10 8 8 5 5 12 10 15 17 9 6 8 6 8 16 12 16 11 9 5 7 5
35 36 35 35 42 40 18 13 12 7 5 5 5 8 6 3 4 6 7 14 15 17 13 7 7 7 8 7 11 11 12 14 12 16 18 16 12 11 11 7 7 4 4 5
37 35 34 37 37 33 18 12 11 9 5 3 6 9 11 5 6 9 12 14 16 8 9 6 5 5 9 10 10 13 11 9 11 14 16 15 7 9 10 11 8 8 8 10
35 35 35 38 36 27 12 10 10 9 6 5 8 9 14 10 8 12 14 15 14 8 9 5 7 8 4 6 8 10 12 15 10 8 10 13 15 5 11 12 14 11 10 10
33 35 36 38 33 26 13 6 4 8 5 1 3 6 19 15 13 13 16 15 12 11 9 9 10 14 10 5 11 14 16 14 13 12 7 5 4 1 4 6 7 10 9 9
33 35 42 35 27 11 6 4 11 11 5 1 3 3 4 18 18 11 9 12 10 8 9 8 10 11 5 6 10 11 11 13 15 8 3 7 7 0 2 2 1 0 2 4
37 41 37 27 24 14 7 5 16 13 6 3 2 4 1 6 8 9 11 8 10 5 6 3 10 6 4 8 13 18 17 10 4 5 8 7 4 1 3 4 2 6 7 7
38 33 29 13 4 3 4 10 12 3 0 5 3 3 1 4 6 9 10 10 9 5 7 6 5 6 8 7 11 13 12 17 10 3 3 2 2 3 4 4 6 7 8 9
31 13 6 4 5 25 17 4 5 5 4 4 3 1 3 3 3 4 6 5 5 5 5 7 5 6 10 6 5 6 8 3 2 4 5 4 4 5 5 5 6 8 10 12
4 4 4 10 20 4 1 4 4 4 3 4 4 8 4 6 4 2 2 5 6 8 8 9 6 6 6 7 6 6 5 5 4 3 4 5 4 7 10 11 11 11 13 14
3 9 7 4 2 4 4 4 4 4 5 6 5 5 3 3 4 2 5 3 2 6 8 6 5 5 7 6 5 7 7 8 10 11 12 13 14 14 14 14 15 15 16 15
5 5 3 3 1 3 4 5 3 4 2 3 3 4 3 3 2 2 2 7 3 3 2 3 4 6 7 8 8 11 12 14 16 17 17 19 18 16 15 15 13 15 15 15
3 2 5 3 2 2 5 3 5 4 4 2 4 1 2 2 4 4 4 3 3 5 5 4 2 4 7 9 9 11 14 15 17 18 18 17 17 17 15 13 13 15 16 15
4 2 4 4 3 4 3 2 2 2 3 2 1 2 2 1 1 3 5 3 3 6 4 4 4 7 8 10 10 11 12 12 14 14 15 16 16 17 18 16 16 17 16 16
4 6 2 5 3 4 3 6 3 5 4 2 2 1 1 4 3 4 4 3 5 4 4 6 7 10 11 12 12 13 12 14 15 15 16 18 17 18 19 18 17 16 15 15
4 5 7 7 4 6 4 4 4 5 3 1 2 4 5 1 4 4 5 5 5 6 7 7 10 12 13 14 15 14 15 17 17 17 19 18 17 16 17 18 16 16 15 13
Wind_Direction
237 231 225 220 214 205 189 184 209 169 172 192 197 226 229 237 231 253 241 232 252 236 221 219 223 240 214 217 220 206 222 207 216 212 218 225 224 209 225 236 246 230 250 271
233 228 223 214 208 193 181 177 180 176 180 200 201 228 231 235 249 248 219 205 236 214 205 253 205 238 279 192 223 210 206 223 223 197 190 218 246 240 236 237 248 264 230 255
230 224 218 213 203 189 184 162 173 184 203 218 209 219 217 223 232 257 243 212 229 219 221 222 293 240 260 282 241 211 219 214 223 222 212 203 215 236 232 238 239 247 254 271
231 222 217 213 201 187 178 192 211 182 189 207 227 225 216 214 215 232 252 235 223 213 207 215 214 234 235 265 255 248 223 223 222 235 245 236 220 210 227 239 242 244 254 266
230 223 217 209 203 185 192 183 204 193 210 201 220 220 229 216 219 210 226 236 226 226 227 199 206 257 6 333 207 227 216 224 231 231 235 247 243 239 244 248 238 246 254 254
231 221 219 208 200 183 175 209 206 190 201 193 204 219 216 225 216 221 222 227 241 220 236 106 81 91 179 343 324 248 223 223 227 234 234 236 235 238 251 248 243 251 256 269
228 221 215 210 199 189 196 197 200 211 205 209 209 212 222 219 223 224 221 225 228 234 224 145 157 351 348 309 294 285 265 232 233 205 259 230 237 238 238 246 256 250 251 258
223 218 209 219 195 188 196 179 204 198 204 213 210 209 207 230 226 223 238 223 228 229 216 200 203 18 344 261 272 258 256 267 240 224 226 247 243 214 225 243 255 255 261 264
219 213 207 204 196 185 189 192 201 205 200 221 210 209 202 206 218 220 221 252 236 207 214 205 218 198 205 205 233 258 232 231 241 177 234 237 235 213 222 255 263 255 268 271
210 205 203 194 197 182 184 186 199 203 205 227 238 220 196 203 211 218 212 216 199 222 218 219 229 235 215 222 195 166 168 208 223 222 234 248 221 199 187 210 250 292 281 287
198 194 193 187 183 178 177 177 201 196 192 223 214 251 214 201 212 207 210 191 201 201 205 191 207 229 218 228 226 204 178 205 190 229 229 237 127 128 199 221 254 242 233 249
187 184 182 181 173 175 169 165 191 197 197 197 57 19 317 254 208 212 218 205 188 192 199 196 219 224 202 208 222 225 207 210 227 213 212 234 182 221 219 263 291 239 266 223
173 171 172 177 169 166 160 166 163 159 148 194 189 207 167 142 210 169 260 216 190 211 202 189 208 210 192 197 220 226 223 240 236 244 249 261 242 245 256 283 250 248 236 223
161 160 162 162 155 150 147 159 157 149 129 189 211 198 183 196 179 218 251 286 292 247 201 233 200 221 214 211 228 223 229 206 227 247 255 255 226 255 257 241 229 227 225 214
145 151 153 149 138 128 127 132 153 168 173 174 209 198 210 190 210 211 239 253 267 259 213 161 219 225 243 229 251 237 227 230 219 238 251 257 259 275 254 232 230 215 224 224
142 149 147 128 128 130 116 83 305 190 90 99 177 320 227 195 208 207 226 230 253 262 208 214 237 238 239 233 235 235 248 254 242 253 288 285 47 104 328 205 222 257 219 211
137 136 126 127 134 118 85 142 148 186 149 236 306 278 201 210 202 225 227 229 241 241 233 236 219 222 210 242 241 238 245 245 236 228 265 255 210 298 48 295 65 124 188 190
119 117 123 127 92 114 99 71 134 140 122 203 202 254 293 188 179 216 195 210 219 228 220 222 215 185 235 237 240 243 255 262 280 246 232 293 53 97 62 69 124 131 128 138
106 105 97 77 56 79 66 129 148 180 224 174 190 247 239 324 211 190 164 198 202 234 224 222 222 178 220 213 236 244 234 242 249 219 204 162 159 108 127 131 129 118 124 142
109 92 74 102 124 105 108 120 154 193 226 212 196 122 222 60 341 182 133 185 187 178 220 195 234 235 220 109 38 6 360 148 119 183 196 187 178 138 121 115 104 123 125 122
119 85 67 97 131 152 215 126 173 167 209 212 178 194 175 159 174 257 116 173 180 182 180 202 205 213 197 46 45 26 32 70 80 24 48 56 111 128 116 101 96 103 106 90
44 86 80 112 166 194 164 162 148 200 209 171 185 157 177 147 113 185 186 152 221 184 164 181 206 70 41 45 51 63 72 83 75 72 81 82 85 88 100 100 98 95 97 102
118 62 115 201 104 182 194 147 176 173 219 140 147 145 132 122 124 248 161 189 144 113 173 98 54 62 59 63 69 68 67 74 77 74 74 75 76 81 89 97 101 102 95 96
70 184 136 246 170 253 22 55 70 2 4 103 113 75 283 134 175 206 146 75 147 163 147 90 65 62 66 68 70 79 76 80 86 85 85 84 84 81 80 86 91 93 89 88
36 317 60 46 23 38 18 6 95 29 292 208 171 178 207 238 358 29 80 117 80 31 63 66 72 75 82 83 80 81 82 81 82 84 86 87 89 87 82 78 82 81 82 82
53 36 7 343 197 61 30 13 45 11 333 284 354 160 99 52 55 67 12 73 51 71 59 80 83 80 78 81 81 82 85 85 88 87 86 85 82 83 85 81 76 75 79 83
39 65 26 348 40 37 27 340 4 318 293 57 344 26 40 146 60 65 23 39 68 85 78 79 85 92 96 98 94 91 91 91 89 91 90 90 90 89 84 83 83 86 86 85